(130099) = 1999 XU22

Discovered at Socorro on 1999-12-06 by LINEAR.

Orbit

Orbit type: Main Belt

Note: WebGL enabled browser required.

epoch2024-03-31.0
epoch JD2460400.5
perihelion date2023-06-17.74232
perihelion JD2460113.24232
argument of perihelion (°)11.84057
ascending node (°)60.94496
inclination (°)10.95125
eccentricity0.2745780
perihelion distance (AU)2.0283251
Tisserand w.r.t. Jupiter3.2
ΔV w.r.t. Earth (km/sec)9.6
semimajor axis (AU)2.7960625
mean anomaly (°)60.55572
mean daily motion (°/day)0.21080630
aphelion distance (AU)3.564
period (years)4.68
P-vector [x]0.29921575
P-vector [y]0.85921169
P-vector [z]0.41500026
Q-vector [x]-0.93962331
Q-vector [y]0.18962730
Q-vector [z]0.28486754
absolute magnitude15.5
phase slope0.15
uncertainty0
referenceMPEC 2024-F14
observations used716
oppositions14
arc length (days)8932
first opposition used1999
last opposition used2024
residual rms (arc-secs)0.70
perturbers coarse indicatorM-v
perturbers precise indicator003Ek
first observation date used1999-10-03.0
last observation date used2024-03-17.0
computer nameMPCLINUX
JD of orbit computation2456819.651294
perihelion JD uncertainty (days)5.2028E-05
argument of perihelion uncertainty (°)2.8111E-05
ascending node uncertainty (°)2.4879E-05
inclination uncertainty (°)7.1872E-06
eccentricity uncertainty 5.5984E-08
perihelion distance uncertainty (AU)1.6027E-07
Minimum Orbit Intersection Distances (in AU)
for orbit epoch: 2460400.5, reference: E2024-G51
Mercury1.72061
Venus1.30844
Earth1.04452
Mars0.49141
Jupiter1.76469
Saturn6.47831
Uranus15.3827
Neptune26.9718

Observations

729 total observations over interval: 1999 10 03.39776 – 2024 03 17.382984
These data are available for download (format description).

Date (UT) J2000 RA J2000 Dec Magn Location Ref
1999 10 03.39776 03 10 02.12 +07 51 03.8 18.0 R 703 – Catalina Sky Survey MPS 8870
1999 10 03.41013 03 10 01.87 +07 51 04.8 18.3 R 703 – Catalina Sky Survey MPS 8870
1999 10 03.42236 03 10 01.68 +07 51 05.7 18.6 R 703 – Catalina Sky Survey MPS 8870
1999 10 03.43469 03 10 01.48 +07 51 07.3 18.9 R 703 – Catalina Sky Survey MPS 8870
1999 10 09.35008 03 08 00.27 +07 59 45.2 18.6   704 – Lincoln Laboratory ETS, New Mexico MPS 12099
1999 10 09.36353 03 07 59.89 +07 59 46.6 18.6   704 – Lincoln Laboratory ETS, New Mexico MPS 12099
1999 10 09.37675 03 07 59.49 +07 59 48.3 19.1   704 – Lincoln Laboratory ETS, New Mexico MPS 12099
1999 10 09.39163 03 07 59.04 +07 59 49.2 18.8   704 – Lincoln Laboratory ETS, New Mexico MPS 12099
1999 10 09.40757 03 07 58.61 +07 59 50.5 19.4   704 – Lincoln Laboratory ETS, New Mexico MPS 12099
1999 10 19.26043 03 02 08.11 +08 15 11.9 18.3   704 – Lincoln Laboratory ETS, New Mexico MPS 8870
1999 10 19.27443 03 02 07.46 +08 15 14.0 18.2   704 – Lincoln Laboratory ETS, New Mexico MPS 8870
1999 10 19.28842 03 02 06.81 +08 15 15.9 18.4   704 – Lincoln Laboratory ETS, New Mexico MPS 8870
1999 10 19.30241 03 02 06.13 +08 15 17.1 18.1   704 – Lincoln Laboratory ETS, New Mexico MPS 8870
1999 10 19.31646 03 02 05.48 +08 15 16.5 19.4   704 – Lincoln Laboratory ETS, New Mexico MPS 8870
1999 10 30.30162 02 52 38.53 +08 37 23.5 17.9 R 703 – Catalina Sky Survey MPS 8870
1999 10 30.31362 02 52 37.72 +08 37 26.4 17.8 R 703 – Catalina Sky Survey MPS 8870
1999 10 30.32561 02 52 37.04 +08 37 28.0 17.4 R 703 – Catalina Sky Survey MPS 8870
1999 10 30.33887 02 52 36.24 +08 37 30.5 18.0 R 703 – Catalina Sky Survey MPS 8870
1999 11 05.32104 02 46 39.44 +08 53 05.2 18.1   704 – Lincoln Laboratory ETS, New Mexico MPS 8870
1999 11 05.33773 02 46 38.38 +08 53 08.5 17.8   704 – Lincoln Laboratory ETS, New Mexico MPS 8870
1999 11 05.35439 02 46 37.30 +08 53 10.6 17.9   704 – Lincoln Laboratory ETS, New Mexico MPS 8870
1999 11 05.37108 02 46 36.28 +08 53 13.7 18.4   704 – Lincoln Laboratory ETS, New Mexico MPS 8870
1999 11 05.38777 02 46 35.20 +08 53 16.4 18.5   704 – Lincoln Laboratory ETS, New Mexico MPS 8870
1999 11 13.23477 02 38 37.03 +09 18 56.7 17.9 R 699 – Lowell Observatory-LONEOS MPS 8870
1999 11 13.26279 02 38 35.23 +09 19 03.7   699 – Lowell Observatory-LONEOS MPS 8870
1999 11 13.29081 02 38 33.43 +09 19 09.2   699 – Lowell Observatory-LONEOS MPS 8870
1999 11 17.20424 02 34 44.59 +09 34 30.3 18.3   704 – Lincoln Laboratory ETS, New Mexico MPS 8870
1999 11 17.21983 02 34 43.70 +09 34 32.7 18.8   704 – Lincoln Laboratory ETS, New Mexico MPS 8870
1999 11 17.23540 02 34 42.72 +09 34 37.5 18.7   704 – Lincoln Laboratory ETS, New Mexico MPS 8870
1999 11 17.25098 02 34 41.77 +09 34 41.4 18.5   704 – Lincoln Laboratory ETS, New Mexico MPS 8870
1999 11 17.26651 02 34 40.75 +09 34 42.6 19.1   704 – Lincoln Laboratory ETS, New Mexico MPS 8870
1999 12 06.13344 02 20 51.60 +11 14 24.0 18.3   704 – Lincoln Laboratory ETS, New Mexico MPS 7960
1999 12 06.14780 02 20 51.22 +11 14 28.9 18.7   704 – Lincoln Laboratory ETS, New Mexico MPS 7960
1999 12 06.16325 02 20 50.71 +11 14 35.4 18.5   704 – Lincoln Laboratory ETS, New Mexico MPS 7960
1999 12 06.17764 02 20 50.29 +11 14 41.1 18.8   704 – Lincoln Laboratory ETS, New Mexico MPS 7960
1999 12 06.19212 02 20 49.80 +11 14 45.9 18.7   704 – Lincoln Laboratory ETS, New Mexico MPS 7960
1999 12 07.15090 02 20 24.64 +11 20 58.3 17.6   704 – Lincoln Laboratory ETS, New Mexico MPS 7960
1999 12 07.16583 02 20 24.22 +11 21 03.8 18.1   704 – Lincoln Laboratory ETS, New Mexico MPS 7960
1999 12 07.18075 02 20 23.82 +11 21 10.0 18.5   704 – Lincoln Laboratory ETS, New Mexico MPS 7960
1999 12 07.19566 02 20 23.38 +11 21 15.8 18.7   704 – Lincoln Laboratory ETS, New Mexico MPS 7960
1999 12 07.21057 02 20 22.97 +11 21 21.4 18.1   704 – Lincoln Laboratory ETS, New Mexico MPS 7960
1999 12 12.19067 02 18 43.44 +11 55 16.9 18.3 R 703 – Catalina Sky Survey MPS 7960
1999 12 12.20282 02 18 43.23 +11 55 22.4 18.4 R 703 – Catalina Sky Survey MPS 7960
1999 12 12.21505 02 18 42.98 +11 55 27.4 18.3 R 703 – Catalina Sky Survey MPS 7960
1999 12 12.22723 02 18 42.79 +11 55 32.4 18.5 R 703 – Catalina Sky Survey MPS 7960
2000 01 04.07845 02 22 30.70 +15 02 02.2 18.6   704 – Lincoln Laboratory ETS, New Mexico MPS 8870
2000 01 04.09351 02 22 31.17 +15 02 10.5 19.1   704 – Lincoln Laboratory ETS, New Mexico MPS 8870
2000 01 04.10855 02 22 31.67 +15 02 18.2 18.9   704 – Lincoln Laboratory ETS, New Mexico MPS 8870
2000 01 04.12355 02 22 32.13 +15 02 26.4 19.0   704 – Lincoln Laboratory ETS, New Mexico MPS 8870
2000 01 04.13856 02 22 32.52 +15 02 35.1 19.5   704 – Lincoln Laboratory ETS, New Mexico MPS 8870
2000 01 06.07949 02 23 41.62 +15 20 15.8 18.2   704 – Lincoln Laboratory ETS, New Mexico MPS 8870
2000 01 06.09435 02 23 42.09 +15 20 23.7 18.9   704 – Lincoln Laboratory ETS, New Mexico MPS 8870
2000 01 06.10919 02 23 42.60 +15 20 31.7 18.8   704 – Lincoln Laboratory ETS, New Mexico MPS 8870
2000 01 06.12414 02 23 43.11 +15 20 39.8 19.1   704 – Lincoln Laboratory ETS, New Mexico MPS 8870
2000 01 06.13901 02 23 43.71 +15 20 48.0 19.5   704 – Lincoln Laboratory ETS, New Mexico MPS 8870
2001 03 19.357230 13 23 02.811 +04 40 34.75 20.54 V 645 – Apache Point-Sloan Digital Sky Survey MPS 117447
2001 03 19.360702 13 23 02.643 +04 40 35.64 21.56   645 – Apache Point-Sloan Digital Sky Survey MPS 117447
2004 09 23.40867 06 38 08.93 +24 50 05.5 19.2   704 – Lincoln Laboratory ETS, New Mexico MPS 117447
2004 09 23.42055 06 38 10.32 +24 50 07.6 19.6   704 – Lincoln Laboratory ETS, New Mexico MPS 117447
2004 09 23.43245 06 38 11.61 +24 50 10.5 19.4   704 – Lincoln Laboratory ETS, New Mexico MPS 117447
2004 09 23.45627 06 38 14.18 +24 50 16.1 19.4   704 – Lincoln Laboratory ETS, New Mexico MPS 117447
2004 10 21.40029 07 24 08.82 +26 32 56.0 19.2   704 – Lincoln Laboratory ETS, New Mexico MPS 117447
2004 10 21.41196 07 24 09.75 +26 32 59.0 19.3   704 – Lincoln Laboratory ETS, New Mexico MPS 117447
2004 10 21.42364 07 24 10.74 +26 33 02.3 19.0   704 – Lincoln Laboratory ETS, New Mexico MPS 117447
2004 10 21.43532 07 24 11.73 +26 33 05.2 19.3   704 – Lincoln Laboratory ETS, New Mexico MPS 117447
2004 11 22.38482 07 54 59.72 +29 44 05.4 18.8   704 – Lincoln Laboratory ETS, New Mexico MPS 120327
2004 11 22.39717 07 55 00.12 +29 44 10.8 19.0   704 – Lincoln Laboratory ETS, New Mexico MPS 120327
2004 11 22.41008 07 55 00.38 +29 44 16.9 19.2   704 – Lincoln Laboratory ETS, New Mexico MPS 120327
2004 11 22.42274 07 55 00.71 +29 44 23.1 19.0   704 – Lincoln Laboratory ETS, New Mexico MPS 120327
2004 11 22.43510 07 55 01.04 +29 44 29.5 18.9   704 – Lincoln Laboratory ETS, New Mexico MPS 120327
2004 12 02.33790 07 57 35.76 +31 10 35.4 18.4   704 – Lincoln Laboratory ETS, New Mexico MPS 120327
2004 12 02.35055 07 57 35.75 +31 10 43.1 18.6   704 – Lincoln Laboratory ETS, New Mexico MPS 120327
2004 12 02.36643 07 57 35.75 +31 10 52.1 18.3   704 – Lincoln Laboratory ETS, New Mexico MPS 120327
2004 12 02.38655 07 57 35.77 +31 11 02.6 18.8   704 – Lincoln Laboratory ETS, New Mexico MPS 120327
2004 12 02.39959 07 57 35.81 +31 11 08.9 18.7   704 – Lincoln Laboratory ETS, New Mexico MPS 120327
2004 12 09.34509 07 57 02.68 +32 17 53.9 18.0 R 704 – Lincoln Laboratory ETS, New Mexico MPS 121099
2004 12 09.35926 07 57 02.34 +32 18 04.0 18.4 R 704 – Lincoln Laboratory ETS, New Mexico MPS 121099
2004 12 09.37350 07 57 02.20 +32 18 10.2 18.4 R 704 – Lincoln Laboratory ETS, New Mexico MPS 121099
2004 12 09.38744 07 57 01.84 +32 18 18.5 18.7 R 704 – Lincoln Laboratory ETS, New Mexico MPS 121099
2004 12 09.40129 07 57 01.68 +32 18 26.7 18.5 R 704 – Lincoln Laboratory ETS, New Mexico MPS 121099
2004 12 14.43140 07 55 22.78 +33 08 38.4 17.0 R 703 – Catalina Sky Survey MPS 121563
2004 12 14.43738 07 55 22.63 +33 08 41.9 17.2 R 703 – Catalina Sky Survey MPS 121563
2004 12 14.44341 07 55 22.44 +33 08 45.4 17.2 R 703 – Catalina Sky Survey MPS 121563
2004 12 14.44947 07 55 22.28 +33 08 48.9 17.2 R 703 – Catalina Sky Survey MPS 121563
2004 12 15.35398 07 54 58.39 +33 17 54.7 18.0   704 – Lincoln Laboratory ETS, New Mexico MPS 121563
